Regional Weather Roundup
Issued by NWS

Home | Current Version | Previous Version | Graphics & Text | Print | Product List | Glossary Off
Versions: 1 2 3 4 5 6 7 8 9 10 11 12 13 14 15 16 17 18 19 20 21 22 23 24 25 26 27 28 29 30 31 32 33 34 35 36 37 38 39 40 41 42 43 44 45 46 47 48 49 50

000
ASUS43 KLSX 250807
RWRMO

WEATHER SUMMARY FOR MISSOURI
NATIONAL WEATHER SERVICE SPRINGFIELD MO
300 AM CDT FRI APR 25 2014

NOTE: "FAIR" INDICATES FEW OR NO CLOUDS BELOW 12,000 FEET WITH NO
       SIGNIFICANT WEATHER AND/OR OBSTRUCTIONS TO VISIBILITY.
       CURRENT SKY AND/OR WEATHER CONDITIONS ARE NOT AVAILABLE FOR
       CHILLICOTHE AND FARMINGTON.

MOZ001>031-035>038-043-044-053-054-250900-
...NORTHERN AND WESTERN MISSOURI...

CITY           SKY/WX    TMP DP  RH WIND       PRES   REMARKS
KANSAS CTY INT CLEAR     46  42  86 SW6       29.87S
KANSAS C DTWN  CLEAR     49  44  83 S5        29.86F
LEE`S SUMMIT   CLEAR     46  43  89 SW6       29.87F
ST JOSEPH      PTCLDY    42  41  96 SE5       29.86S FOG
CHILLICOTHE      N/A     50  44  80 CALM      29.86R
KIRKSVILLE     PTCLDY    47  43  86 NW8       29.83R

$$
MOZ066>068-077>081-088>096-101>105-250900-
...SOUTHWEST MISSOURI...

CITY           SKY/WX    TMP DP  RH WIND       PRES   REMARKS
SPRINGFIELD    CLEAR     47  42  83 NW5       29.89R
JOPLIN         CLEAR     44  42  93 S3        29.92R

$$
MOZ032>034-039>042-045>050-055>058-069>072-250900-
...CENTRAL MISSOURI...

CITY           SKY/WX    TMP DP  RH WIND       PRES   REMARKS
COLUMBIA       PTCLDY    50  45  83 W10       29.84R
JEFFERSON CITY MOCLDY    50  46  86 NW6       29.84R
ROLLA          CLOUDY    49  46  90 W12       29.81R
SEDALIA        CLEAR     51  45  79 W9        29.86S
WHITEMAN AFB   CLEAR     49  40  71 W3        29.86S
OSAGE BEACH    CLEAR     50  45  81 W5        29.87R

$$
MOZ051-052-059>065-250900-
...EAST CENTRAL MISSOURI...

CITY           SKY/WX    TMP DP  RH WIND       PRES   REMARKS
ST LOUIS INTL  CLOUDY    55  49  80 W16G24    29.73R
SPIRIT OF STL  CLOUDY   N/A N/A N/A W16       29.75R
ST CHARLES     CLOUDY    54  49  83 NW17G24   29.73R

$$
MOZ072>076-082>087-097>100-106>115-250900-
...SOUTH CENTRAL AND SOUTHEAST MISSOURI...

CITY           SKY/WX    TMP DP  RH WIND       PRES   REMARKS
CAPE GIRARDEAU LGT RAIN  58  56  93 W8        29.71S
FARMINGTON     CLOUDY    54  50  87 NW14G28   29.76R
POPLAR BLUFF   CLOUDY    59  52  77 NW17G25   29.75R
WEST PLAINS    PTCLDY    51  44  77 NW10G20   29.84R

$$



USA.gov is the U.S. government's official web portal to all federal, state and local government web resources and services.